Location: Zagreb
(45.8000°N, 16.0000°E)
Time: 23:26:58
(UTC+01:00)

Transit 2A Rocket - Pass Details

Date: 06 October 2020
Orbit: 586 x 916 km, 66.7° (Epoch: 27 October)

Event Time Altitude Azimuth Distance (km) Brightness Sun altitude
Rises 21:42:15 0° 328° (NNW) 3,483 9.2 -33.8°
Reaches altitude 10° 21:46:43 10° 358° (N) 2,474 8.0 -34.5°
Enters shadow 21:48:24 12° 15° (NNE) 2,311 7.6 -34.7°
Maximum altitude 21:48:49 12° 20° (NNE) 2,298 - -34.8°
Drops below altitude 10° 21:50:52 10° 42° (NE) 2,394 - -35.1°
Sets 21:54:59 0° 73° (ENE) 3,232 - -35.7°
